KE0RUZ Weather Reports


Display with metric or nautical units.
time (UTC)temp
F
wind
direction
speed
MPH
gust
MPH
rain 1hr
in
rain 24hr
in
rain mn
in
humidity
%
barometer
mb
20240521111542 67 139 3.0 7.0 0.00 0.01 0.00 88 1007.5
20240521110042 68 152 3.0 7.0 0.00 0.01 0.00 88 1007.6
20240521104541 68 121 3.0 5.0 0.00 0.16 0.00 87 1007.8
20240521103042 68 130 3.0 6.0 0.00 0.16 0.00 87 1007.9
20240521101544 68 146 4.0 6.0 0.00 0.16 0.00 87 1008.0
20240521100041 68 141 3.0 6.0 0.00 0.16 0.00 88 1008.1
20240521094545 68 110 3.0 7.0 0.00 0.20 0.00 88 1008.1
20240521093044 68 167 2.0 6.0 0.00 0.20 0.00 88 1008.2
20240521091556 69 137 3.0 5.0 0.00 0.20 0.00 87 1008.3
20240521090047 69 158 2.0 5.0 0.00 0.20 0.00 87 1008.7
20240521084541 69 147 2.0 5.0 0.00 0.20 0.00 87 1008.7
20240521083046 70 126 3.0 5.0 0.00 0.20 0.00 86 1008.8
20240521081539 70 162 2.0 4.0 0.00 0.20 0.00 86 1008.8
20240521080039 70 145 2.0 5.0 0.00 0.20 0.00 86 1008.8
20240521074544 70 155 2.0 3.0 0.00 0.20 0.00 85 1008.9
20240521073040 71 133 2.0 6.0 0.00 0.20 0.00 85 1009.0
20240521071556 71 130 2.0 5.0 0.00 0.20 0.00 84 1009.1
20240521070103 71 166 2.0 5.0 0.00 0.20 0.00 84 1009.3
20240521064543 72 127 2.0 5.0 0.00 0.20 0.00 83 1009.5
20240521063041 72 128 3.0 6.0 0.00 0.20 0.00 83 1009.6
20240521061542 72 162 3.0 8.0 0.00 0.20 0.00 82 1009.6
20240521060042 73 186 4.0 8.0 0.00 0.20 0.00 82 1009.8
20240521054543 73 143 3.0 7.0 0.00 0.20 0.00 82 1009.9
20240521053042 73 151 3.0 6.0 0.00 0.20 0.00 81 1010.0
20240521051544 73 167 2.0 4.0 0.00 0.20 0.00 81 1010.2
20240521050049 74 162 3.0 7.0 0.00 0.20 0.00 80 1010.5
20240521044539 74 188 2.0 6.0 0.00 0.20 0.20 79 1010.5
20240521043039 75 229 3.0 7.0 0.00 0.20 0.20 79 1010.3
20240521041541 75 129 2.0 6.0 0.00 0.20 0.20 78 1010.3
20240521040043 75 120 2.0 7.0 0.00 0.20 0.20 78 1010.6
20240521034539 75 113 3.0 6.0 0.00 0.20 0.20 78 1010.7
20240521033044 76 148 2.0 6.0 0.00 0.20 0.20 78 1010.7
20240521031553 76 145 3.0 6.0 0.00 0.20 0.20 77 1010.8
20240521030042 76 165 1.0 6.0 0.00 0.20 0.20 77 1010.8
20240521024546 76 129 3.0 8.0 0.00 0.20 0.20 77 1010.7
20240521023043 76 172 3.0 7.0 0.00 0.20 0.20 78 1010.6
20240521021544 76 115 2.0 4.0 0.00 0.20 0.20 78 1010.6
20240521020037 77 115 1.0 3.0 0.00 0.20 0.20 78 1010.7
20240521014549 78 136 0.0 2.0 0.00 0.20 0.20 76 1010.4
20240521013037 79 167 1.0 3.0 0.00 0.20 0.20 75 1010.3
20240521011547 80 160 1.0 3.0 0.00 0.20 0.20 73 1010.3
20240521010054 81 136 1.0 3.0 0.00 0.20 0.20 71 1010.1
20240521004538 82 130 1.0 3.0 0.00 0.20 0.20 69 1010.1
20240521003039 82 131 2.0 3.0 0.00 0.20 0.20 68 1010.4
20240521001552 84 192 0.0 2.0 0.00 0.20 0.20 65 1010.7
20240521000048 85 187 2.0 4.0 0.00 0.20 0.20 64 1010.5
20240520234542 85 105 2.0 6.0 0.00 0.20 0.20 64 1010.6
20240520233041 85 191 4.0 10.0 0.00 0.20 0.20 62 1010.5
20240520231546 85 151 3.0 8.0 0.00 0.20 0.20 63 1010.6
20240520230049 86 226 2.0 6.0 0.00 0.20 0.20 63 1010.5
20240520224546 86 272 5.0 10.0 0.00 0.20 0.20 64 1010.6
20240520223125 86 103 3.0 12.0 0.00 0.20 0.20 64 1010.7
20240520221544 85 153 3.0 10.0 0.00 0.20 0.20 63 1010.6
20240520220108 85 250 4.0 12.0 0.00 0.20 0.20 65 1010.7
20240520214544 85 198 6.0 12.0 0.00 0.20 0.20 65 1010.9
20240520213048 85 134 6.0 11.0 0.00 0.20 0.20 64 1011.1
20240520211551 84 219 6.0 14.0 0.00 0.20 0.20 66 1011.3
20240520210037 85 176 4.0 9.0 0.00 0.20 0.20 66 1011.5
20240520204548 84 146 4.0 11.0 0.00 0.20 0.20 67 1011.8
20240520203042 83 124 4.0 12.0 0.00 0.20 0.20 67 1012.0
20240520201539 84 255 3.0 14.0 0.00 0.20 0.20 66 1012.1
20240520200040 83 263 7.0 13.0 0.00 0.20 0.20 67 1012.3
20240520194540 82 119 4.0 12.0 0.00 0.20 0.20 70 1012.5
20240520193040 82 141 5.0 10.0 0.00 0.20 0.20 72 1012.6
20240520191537 82 176 3.0 10.0 0.00 0.20 0.20 74 1012.9
20240520190048 81 182 6.0 11.0 0.00 0.20 0.20 70 1013.0
20240520184536 81 110 3.0 7.0 0.00 0.20 0.20 72 1013.2
20240520183035 80 143 3.0 7.0 0.00 0.20 0.20 71 1013.3
20240520181539 81 148 3.0 7.0 0.00 0.20 0.20 71 1013.4
20240520180042 80 238 3.0 7.0 0.00 0.20 0.20 71 1013.5
20240520174552 80 198 3.0 7.0 0.00 0.20 0.20 71 1013.7
20240520173105 80 162 2.0 7.0 0.00 0.20 0.20 71 1013.7
20240520171543 80 150 1.0 5.0 0.00 0.20 0.20 69 1013.6
20240520170043 79 209 1.0 7.0 0.00 0.20 0.20 72 1013.7
20240520164557 78 172 2.0 9.0 0.00 0.20 0.20 71 1013.3
20240520163055 78 238 3.0 10.0 0.00 0.20 0.20 71 1013.2
20240520161544 77 136 3.0 9.0 0.00 0.20 0.20 68 1013.1
20240520160048 78 257 3.0 9.0 0.00 0.20 0.20 66 1012.9
20240520154546 77 222 3.0 7.0 0.00 0.20 0.20 67 1012.7
20240520153105 76 226 2.0 6.0 0.00 0.20 0.20 76 1012.3
20240520151549 73 268 1.0 3.0 0.00 0.20 0.20 82 1012.0
20240520150041 71 0 0.0 2.0 0.00 0.20 0.20 85 1012.0
20240520144542 71 0 0.0 2.0 0.00 0.20 0.20 83 1012.0
20240520143041 72 13 2.0 4.0 0.00 0.20 0.20 82 1011.4
20240520141544 74 0 0.0 1.0 0.00 0.20 0.20 78 1011.1
20240520140044 74 129 2.0 5.0 0.00 0.20 0.20 74 1011.1
20240520134538 73 139 1.0 4.0 0.00 0.20 0.20 78 1011.1
20240520133043 71 152 2.0 5.0 0.00 0.20 0.20 80 1010.9
20240520131545 69 147 3.0 8.0 0.00 0.20 0.20 82 1011.1
20240520130040 67 133 1.0 6.0 0.00 0.20 0.20 86 1011.2
20240520124546 65 108 3.0 5.0 0.00 0.20 0.20 88 1011.2
20240520123043 63 119 2.0 7.0 0.00 0.20 0.20 90 1011.5
20240520121542 63 153 3.0 7.0 0.00 0.20 0.20 91 1012.1
20240520120049 62 182 1.0 6.0 0.01 0.20 0.20 92 1012.9
20240520114539 62 227 3.0 6.0 0.02 0.20 0.20 92 1013.6
20240520113041 63 101 1.0 4.0 0.07 0.20 0.20 92 1013.7